STARLINK-30246 (57615 NORAD) Tracking and Keplerian Element Data

This shows tracking and keplerian element data for the satellite.

Feedback or suggestion? Click here.




ElementValue
Catalog57615
NameSTARLINK-30246
Epoch Orbit2475
Epoch Day13.15460701
Epoch Year2024
RAAN35.141
Inclination43.0027
Eccentricity9.24E-05
Argument of Perigee272.6417
Mean Anonmoly87.432
Mean Motion15.02522893
Decay Rate-2.181E-05
L11 57615U 23119P 24013.15460701 -.00002181 00000+0 -14650-3 0 9996
L22 57615 43.0027 35.1410 0000924 272.6417 87.4320 15.02522893 24759



Live tracking and technical data element details for STARLINK-30246 (NORAD 57615). STARLINK-30246 can be tracked NOW for your location showing map with azimuth and elevation plus other details from your city location.







IsCatalogInMostPopularTable: catalog: 57615, numindb: 28
Update: records affected: 1



GetName: 57615 STARLINK-30246

Hit Count: updated at: Thu, 22 Feb 2024 00:53:35 GMT